This is the latest recevied weather packets stored in our database for station/object SQ4IXR-4. If no packets are shown the sender has not sent any weather packets the latest 10 day(s).
| Time | Temp. | Humidity | Pressure | Rain* | Wind** | Luminosity | Snow |
|---|---|---|---|---|---|---|---|
| 1777780843 | 11.11° C | 62% | 1021.7 hPa | - | - | - | - |
| 1777780018 | 10° C | 66% | 1021.7 hPa | - | - | - | - |
| 1777779193 | 8.89° C | 69% | 1021.6 hPa | - | - | - | - |
| 1777778370 | 8.33° C | 70% | 1021.8 hPa | - | - | - | - |
| 1777777546 | 8.33° C | 70% | 1021.7 hPa | - | - | - | - |
| 1777776723 | 8.33° C | 71% | 1021.7 hPa | - | - | - | - |
| 1777775900 | 8.33° C | 70% | 1021.7 hPa | - | - | - | - |
| 1777775076 | 8.33° C | 70% | 1021.7 hPa | - | - | - | - |
| 1777774252 | 8.33° C | 68% | 1021.8 hPa | - | - | - | - |
| 1777773429 | 8.89° C | 67% | 1021.7 hPa | - | - | - | - |
| 1777772607 | 8.89° C | 67% | 1021.7 hPa | - | - | - | - |
| 1777771785 | 8.89° C | 65% | 1021.8 hPa | - | - | - | - |
| 1777770962 | 8.89° C | 64% | 1021.8 hPa | - | - | - | - |
| 1777770139 | 8.89° C | 63% | 1021.8 hPa | - | - | - | - |
| 1777769316 | 9.44° C | 62% | 1021.9 hPa | - | - | - | - |
| 1777768493 | 9.44° C | 61% | 1021.8 hPa | - | - | - | - |
| 1777767669 | 9.44° C | 60% | 1021.8 hPa | - | - | - | - |
| 1777766847 | 10° C | 59% | 1021.8 hPa | - | - | - | - |
| 1777766023 | 10° C | 58% | 1021.7 hPa | - | - | - | - |
| 1777765201 | 10° C | 56% | 1021.8 hPa | - | - | - | - |
| 1777764379 | 10.56° C | 55% | 1021.8 hPa | - | - | - | - |
| 1777763556 | 10.56° C | 54% | 1021.8 hPa | - | - | - | - |
| 1777762732 | 10.56° C | 53% | 1021.8 hPa | - | - | - | - |
| 1777761909 | 10.56° C | 52% | 1021.8 hPa | - | - | - | - |
| 1777761087 | 11.11° C | 50% | 1021.8 hPa | - | - | - | - |
* Rain since midnight (hover to see other rain measurements)
** Current wind speed in m/s (hover to see current wind gust speed)